This is the latest recevied weather packets stored in our database for station/object KF6GPE. If no packets are shown the sender has not sent any weather packets the latest 10 day(s).
| Time | Temp. | Humidity | Pressure | Rain* | Wind** | Luminosity | Snow |
|---|---|---|---|---|---|---|---|
| 1777474203 | 6.11° C | 98% | 992.3 hPa | 0 mm | - | 1001 W/m² | - |
| 1777473604 | 6.11° C | 98% | 992.4 hPa | 0 mm | - | 1001 W/m² | - |
| 1777473003 | 6.11° C | 98% | 992.3 hPa | 0 mm | - | 1001 W/m² | - |
| 1777472403 | 6.11° C | 98% | 992.4 hPa | 0 mm | - | 1001 W/m² | - |
| 1777471802 | 5.56° C | 98% | 992.4 hPa | 0 mm | - | 1000 W/m² | - |
| 1777471203 | 5.56° C | 98% | 992.3 hPa | 0 mm | - | 1000 W/m² | - |
| 1777468804 | 6.11° C | 97% | 991.6 hPa | 0 mm | - | 1000 W/m² | - |
| 1777468203 | 6.11° C | 97% | 991.4 hPa | 0 mm | - | 1000 W/m² | - |
| 1777467604 | 6.11° C | 97% | 991.2 hPa | 0 mm | - | 1000 W/m² | - |
| 1777467002 | 6.11° C | 97% | 991 hPa | 0 mm | - | 1000 W/m² | - |
| 1777466403 | 6.11° C | 97% | 990.9 hPa | 0 mm | - | 1000 W/m² | - |
| 1777465803 | 6.67° C | 97% | 990.9 hPa | 0 mm | - | 1000 W/m² | - |
| 1777465203 | 6.67° C | 97% | 991 hPa | 0 mm | - | 1000 W/m² | - |
| 1777464603 | 6.67° C | 97% | 991 hPa | 0 mm | - | 1000 W/m² | - |
| 1777464003 | 6.67° C | 96% | 991 hPa | 0 mm | - | 1000 W/m² | - |
| 1777463403 | 6.67° C | 96% | 991.1 hPa | 0 mm | - | 1000 W/m² | - |
| 1777462803 | 7.22° C | 96% | 991.3 hPa | 0 mm | - | 1000 W/m² | - |
| 1777461603 | 7.22° C | 96% | 991.4 hPa | 0 mm | - | 1000 W/m² | - |
| 1777461003 | 7.78° C | 96% | 991.4 hPa | 0 mm | - | 1000 W/m² | - |
| 1777460404 | 7.78° C | 96% | 991.5 hPa | 0 mm | - | 1000 W/m² | - |
| 1777459803 | 7.78° C | 96% | 991.5 hPa | 0 mm | - | 1000 W/m² | - |
| 1777459203 | 7.78° C | 96% | 991.5 hPa | 0 mm | - | 1000 W/m² | - |
| 1777458603 | 7.78° C | 96% | 991.6 hPa | 0 mm | - | 1000 W/m² | - |
| 1777458003 | 7.78° C | 96% | 991.6 hPa | 0 mm | - | 1000 W/m² | - |
| 1777457403 | 7.78° C | 96% | 991.7 hPa | 0 mm | - | 1000 W/m² | - |
* Rain latest hour (hover to see other rain measurements)
** Current wind speed in m/s (hover to see current wind gust speed)